Weather History for Aurora, NE

Change the Weather History Date:

Monday, March 18, 2013

  Actual Average Record
Temperature  
Mean Temperature 36 °F -  
Max Temperature 43 °F 49 °F 79 °F (2012)
Min Temperature 30 °F 29 °F 2 °F (1965)
Degree Days  
Heating Degree Days 28    
Moisture  
Dew Point 24 °F    
Average Humidity 67    
Maximum Humidity 100    
Minimum Humidity 31    
Precipitation  
Precipitation 0.02 in - - ()
Sea Level Pressure  
Sea Level Pressure 29.90 in    
Wind  
Wind Speed 14 mph (NW)    
Max Wind Speed 31 mph    
Max Gust Speed 41 mph    
Visibility 9 miles    
Events Rain , Snow    
Averages and records for this station are not official NWS values.
T = Trace of Precipitation, MM = Missing Value Source: NWS Daily Summary

Daily Weather History Graph

Daily Weather History Graph

Search for Another Location

Airport:

Trip Planner

Search our weather history database for the weather conditions in past years. The results will help you decide how hot, cold, wet, or windy it might be!

Date:

Astronomy

Mar. 18, 2013 Rise Set
Actual Time 7:38 AM CDT 7:42 PM CDT
Civil Twilight 7:10 AM CDT 8:09 PM CDT
Nautical Twilight 6:38 AM CDT 8:41 PM CDT
Astronomical Twilight 6:06 AM CDT 9:14 PM CDT
Moon 11:36 AM CDT (3/18) 1:45 AM CDT (3/18)
Length of Visible Light 12h 58m
Length of Day
12h 04m
Waxing Crescent, 41% of the Moon is Illuminated
Mar 18
Waxing Crescent
Mar 19
First Quarter
Mar 27
Full
Apr 2
Last Quarter
Apr 10
New

Hourly Weather History & Observations

Time (CDT) Temp. Windchill Dew Point Humidity Pressure Visibility Wind Dir Wind Speed Gust Speed Precip Events Conditions
12:15 AM 34.7 °F 25.9 °F 34.7 °F 100% 29.69 in 3.0 mi South 12.7 mph - 0.01 in   Overcast
12:35 AM 34.7 °F 25.5 °F 34.7 °F 100% 29.67 in 3.0 mi SSE 13.8 mph 18.4 mph 0.01 in   Overcast
12:55 AM 34.9 °F 27.1 °F 34.9 °F 100% 29.72 in 3.0 mi SSW 10.4 mph - 0.01 in   Overcast
1:15 AM 34.9 °F 27.1 °F 34.9 °F 100% 29.73 in 3.0 mi SW 10.4 mph 16.1 mph N/A   Overcast
1:35 AM 35.1 °F 25.9 °F 35.1 °F 100% 29.77 in 3.0 mi West 13.8 mph - N/A   Overcast
1:55 AM 34.9 °F 25.7 °F 34.9 °F 100% 29.79 in 3.0 mi West 13.8 mph - N/A Snow Light Snow
2:15 AM 34.9 °F 26.6 °F 34.9 °F 100% 29.79 in 2.5 mi West 11.5 mph - 0.01 in Rain Rain
2:35 AM 35.2 °F 27.6 °F 35.2 °F 100% 29.78 in 4.0 mi West 10.4 mph - 0.01 in   Overcast
2:55 AM 35.6 °F 27.1 °F 35.6 °F 100% 29.78 in 4.0 mi WSW 12.7 mph - 0.01 in   Overcast
3:15 AM 35.6 °F 28.0 °F 35.6 °F 100% 29.77 in 5.0 mi West 10.4 mph - N/A   Overcast
3:35 AM 35.2 °F 26.2 °F 35.2 °F 100% 29.78 in 10.0 mi West 13.8 mph - N/A   Scattered Clouds
3:55 AM 35.6 °F 26.6 °F 33.6 °F 92% 29.78 in 10.0 mi WNW 13.8 mph - N/A   Clear
4:15 AM 34.9 °F 26.6 °F 33.1 °F 93% 29.78 in 10.0 mi WNW 11.5 mph - N/A   Clear
4:35 AM 34.7 °F 25.5 °F 32.0 °F 90% 29.79 in 10.0 mi NW 13.8 mph - N/A   Clear
4:55 AM 34.9 °F 24.6 °F 32.0 °F 89% 29.79 in 10.0 mi NW 17.3 mph - N/A   Clear
5:15 AM 35.1 °F 23.5 °F 30.2 °F 82% 29.79 in 10.0 mi NW 21.9 mph 26.5 mph N/A   Scattered Clouds
5:35 AM 34.5 °F 24.5 °F 29.7 °F 82% 29.80 in 10.0 mi NW 16.1 mph - N/A   Clear
5:55 AM 33.8 °F 25.3 °F 29.3 °F 84% 29.80 in 10.0 mi NW 11.5 mph - N/A   Clear
6:15 AM 33.1 °F 24.4 °F 29.3 °F 86% 29.82 in 10.0 mi NW 11.5 mph - N/A   Clear
6:35 AM 32.5 °F 23.7 °F 28.8 °F 86% 29.82 in 10.0 mi NW 11.5 mph - N/A   Clear
6:55 AM 32.0 °F 23.6 °F 28.2 °F 86% 29.83 in 10.0 mi NW 10.4 mph - N/A   Clear
7:15 AM 31.5 °F 22.9 °F 27.7 °F 86% 29.84 in 10.0 mi NW 10.4 mph - N/A   Clear
7:35 AM 32.0 °F 23.6 °F 26.2 °F 79% 29.85 in 10.0 mi NW 10.4 mph - N/A   Clear
7:55 AM 31.5 °F 23.5 °F 25.9 °F 80% 29.85 in 10.0 mi NNW 9.2 mph - N/A   Clear
8:15 AM 31.5 °F 24.2 °F 26.1 °F 80% 29.85 in 10.0 mi NW 8.1 mph - N/A   Clear
8:35 AM 32.0 °F 24.8 °F 26.6 °F 80% 29.86 in 10.0 mi NW 8.1 mph - N/A   Clear
8:55 AM 32.4 °F 24.0 °F 26.1 °F 78% 29.87 in 10.0 mi NW 10.4 mph - N/A   Clear
9:15 AM 32.9 °F 22.0 °F 25.2 °F 73% 29.88 in 10.0 mi NW 17.3 mph - N/A   Clear
9:35 AM 33.3 °F 26.4 °F 26.2 °F 75% 29.89 in 10.0 mi WNW 8.1 mph - N/A   Clear
9:55 AM 33.8 °F 23.5 °F 26.4 °F 74% 29.89 in 10.0 mi NW 16.1 mph - N/A   Clear
10:15 AM 33.8 °F 22.8 °F 25.2 °F 71% 29.90 in 10.0 mi NW 18.4 mph 21.9 mph N/A   Clear
10:35 AM 34.7 °F 24.3 °F 26.1 °F 71% 29.90 in 10.0 mi NW 17.3 mph - N/A   Clear
10:55 AM 35.1 °F 23.3 °F 26.2 °F 70% 29.91 in 10.0 mi NW 23.0 mph - N/A   Clear
11:15 AM 35.6 °F 24.5 °F 25.5 °F 67% 29.92 in 10.0 mi NW 20.7 mph - N/A   Clear
11:35 AM 36.5 °F 25.2 °F 27.1 °F 69% 29.92 in 10.0 mi NW 23.0 mph - N/A   Clear
11:55 AM 37.4 °F 27.2 °F 27.0 °F 66% 29.92 in 10.0 mi NW 19.6 mph 26.5 mph N/A   Clear
12:15 PM 38.1 °F 27.1 °F 27.5 °F 66% 29.93 in 10.0 mi NW 24.2 mph 28.8 mph N/A   Scattered Clouds
12:35 PM 39.4 °F 29.0 °F 28.2 °F 64% 29.93 in 10.0 mi NW 23.0 mph 27.6 mph N/A   Scattered Clouds
12:55 PM 39.4 °F 28.1 °F 25.3 °F 57% 29.94 in 10.0 mi WNW 27.6 mph 34.5 mph N/A   Scattered Clouds
1:15 PM 39.2 °F 28.7 °F 25.5 °F 58% 29.94 in 10.0 mi NW 23.0 mph 29.9 mph N/A   Clear
1:35 PM 39.6 °F 29.7 °F 24.4 °F 55% 29.94 in 10.0 mi NW 20.7 mph 32.2 mph N/A   Scattered Clouds
1:55 PM 40.5 °F 30.0 °F 23.7 °F 51% 29.94 in 10.0 mi NW 25.3 mph 32.2 mph N/A   Scattered Clouds
2:15 PM 41.4 °F 30.3 °F 21.4 °F 45% 29.94 in 10.0 mi NW 29.9 mph 41.4 mph N/A   Scattered Clouds
2:35 PM 41.9 °F 31.1 °F 18.9 °F 40% 29.94 in 10.0 mi NW 29.9 mph 41.4 mph N/A   Clear
2:55 PM 42.1 °F 31.1 °F 17.6 °F 37% 29.93 in 10.0 mi NW 31.1 mph 38.0 mph N/A   Clear
3:15 PM 42.3 °F 32.2 °F 18.3 °F 38% 29.94 in 10.0 mi NW 26.5 mph 36.8 mph N/A   Clear
3:35 PM 42.4 °F 33.8 °F 18.0 °F 37% 29.93 in 10.0 mi NW 19.6 mph 38.0 mph N/A   Clear
3:55 PM 42.8 °F 33.5 °F 18.3 °F 37% 29.94 in 10.0 mi WNW 23.0 mph 31.1 mph N/A   Clear
4:15 PM 43.2 °F 34.2 °F 18.5 °F 37% 29.95 in 10.0 mi NW 21.9 mph 27.6 mph N/A   Clear
4:35 PM 42.6 °F 32.8 °F 16.9 °F 35% 29.95 in 10.0 mi NW 25.3 mph 34.5 mph N/A   Clear
4:55 PM 42.4 °F 33.5 °F 15.4 °F 34% 29.95 in 10.0 mi NW 20.7 mph 29.9 mph N/A   Clear
5:15 PM 42.4 °F 34.1 °F 15.8 °F 34% 29.95 in 10.0 mi NW 18.4 mph 31.1 mph N/A   Clear
5:35 PM 42.1 °F 32.8 °F 14.4 °F 33% 29.96 in 10.0 mi NW 21.9 mph 29.9 mph N/A   Clear
5:55 PM 42.3 °F 33.6 °F 13.6 °F 31% 29.96 in 10.0 mi NW 19.6 mph 31.1 mph N/A   Clear
6:15 PM 41.9 °F 34.3 °F 15.1 °F 34% 29.96 in 10.0 mi NW 15.0 mph 23.0 mph N/A   Clear
6:35 PM 41.2 °F 32.1 °F 15.3 °F 35% 29.97 in 10.0 mi NNW 19.6 mph 24.2 mph N/A   Clear
6:55 PM 40.1 °F 30.7 °F 13.3 °F 34% 29.98 in 10.0 mi NNW 19.6 mph - N/A   Clear
7:15 PM 38.8 °F 29.7 °F 13.5 °F 35% 29.98 in 10.0 mi NNW 17.3 mph - N/A   Clear
7:35 PM 37.0 °F 28.1 °F 13.8 °F 39% 29.98 in 10.0 mi NNW 15.0 mph - N/A   Clear
7:55 PM 34.3 °F 28.4 °F 17.6 °F 50% 29.99 in 10.0 mi NNW 6.9 mph - N/A   Clear
8:15 PM 33.4 °F 27.3 °F 16.2 °F 49% 29.99 in 10.0 mi North 6.9 mph - N/A   Clear
8:35 PM 32.0 °F 27.5 °F 17.8 °F 56% 29.99 in 10.0 mi North 4.6 mph - N/A   Clear
8:55 PM 31.3 °F 27.9 °F 17.6 °F 57% 30.00 in 10.0 mi North 3.5 mph - N/A   Clear
9:15 PM 31.1 °F 27.7 °F 18.5 °F 60% 30.01 in 10.0 mi NNW 3.5 mph - N/A   Clear
9:35 PM 31.8 °F 26.2 °F 17.1 °F 55% 30.02 in 10.0 mi North 5.8 mph - N/A   Clear
9:55 PM 32.0 °F 25.6 °F 16.9 °F 54% 30.02 in 10.0 mi North 6.9 mph - N/A   Mostly Cloudy
10:15 PM 31.8 °F 27.3 °F 20.3 °F 62% 30.02 in 10.0 mi NNE 4.6 mph - N/A   Overcast
10:55 PM 32.7 °F - 16.2 °F 51% 30.05 in 10.0 mi Calm Calm - N/A   Overcast
11:15 PM 32.0 °F - 19.2 °F 59% 30.05 in 10.0 mi Calm Calm - N/A   Overcast
11:35 PM 30.9 °F - 23.2 °F 73% 30.06 in 10.0 mi Calm Calm - N/A   Overcast
11:55 PM 32.0 °F - 20.1 °F 62% 30.06 in 10.0 mi Calm Calm - N/A   Overcast